Weather History for Miles City, MT

Change the Weather History Date:

Thursday, November 22, 2012

  Actual Average Record
Temperature  
Mean Temperature 31 °F 29 °F  
Max Temperature 46 °F 39 °F 68 °F (1954)
Min Temperature 15 °F 18 °F -14 °F (2003)
Degree Days  
Heating Degree Days 34 36  
Month to date heating degree days 614 678  
Since 1 July heating degree days 1334 1489  
Cooling Degree Days 0 0  
Month to date cooling degree days 0 0  
Year to date cooling degree days 1107 730  
Moisture  
Dew Point 20 °F    
Average Humidity 76    
Maximum Humidity 92    
Minimum Humidity 59    
Precipitation  
Precipitation T in 0.02 in 0.18 in (1981)
Month to date precipitation 0.27 0.32  
Year to date precipitation 5.96 12.08  
Sea Level Pressure  
Sea Level Pressure 30.28 in    
Wind  
Wind Speed 11 mph (NW)    
Max Wind Speed 26 mph    
Max Gust Speed 32 mph    
Visibility 9 miles    
Events Snow    
T = Trace of Precipitation, MM = Missing Value Source: NWS Daily Summary

Daily Weather History Graph

Daily Weather History Graph

Search for Another Location

Airport:

Trip Planner

Search our weather history database for the weather conditions in past years. The results will help you decide how hot, cold, wet, or windy it might be!

Date:

Astronomy

Nov. 22, 2012 Rise Set
Actual Time 7:15 AM MST 4:23 PM MST
Civil Twilight 6:42 AM MST 4:57 PM MST
Nautical Twilight 6:05 AM MST 5:34 PM MST
Astronomical Twilight 5:29 AM MST 6:10 PM MST
Moon 1:26 PM MST 1:20 AM MST
Length of Visible Light 10h 14m
Length of Day
9h 07m
Waxing Gibbous, 72% of the Moon is Illuminated
Nov 22
Waxing Gibbous
Nov 28
Full
Dec 6
Last Quarter
Dec 13
New
Dec 19
First Quarter

Hourly Weather History & Observations

Time (MST) Temp. Windchill Dew Point Humidity Pressure Visibility Wind Dir Wind Speed Gust Speed Precip Events Conditions
12:53 AM 44.1 °F 37.4 °F 32.0 °F 63% 29.87 in 10.0 mi NW 13.8 mph - N/A   Clear
1:53 AM 42.1 °F 35.2 °F 33.1 °F 70% 29.91 in 10.0 mi NW 12.7 mph - N/A   Overcast
2:53 AM 37.9 °F 33.5 °F 32.0 °F 79% 29.95 in 10.0 mi NW 5.8 mph - N/A   Clear
3:53 AM 35.1 °F 29.3 °F 28.9 °F 78% 29.98 in 10.0 mi WNW 6.9 mph - N/A   Clear
4:53 AM 34.0 °F 26.6 °F 27.0 °F 75% 30.01 in 10.0 mi WNW 9.2 mph - N/A   Clear
5:53 AM 32.0 °F 24.8 °F 26.1 °F 79% 30.04 in 10.0 mi West 8.1 mph - N/A   Clear
6:53 AM 30.0 °F 24.1 °F 25.0 °F 82% 30.08 in 10.0 mi West 5.8 mph - N/A   Clear
7:49 AM 28.4 °F 21.2 °F 26.6 °F 93% 30.08 in 9.0 mi NW 6.9 mph - N/A   Mostly Cloudy
7:53 AM 28.9 °F 21.9 °F 27.0 °F 92% 30.14 in 7.0 mi NW 6.9 mph - N/A   Mostly Cloudy
8:02 AM 28.4 °F 20.4 °F 26.6 °F 93% 30.10 in 1.8 mi North 8.1 mph - N/A   Mostly Cloudy
8:26 AM 30.2 °F 25.4 °F 28.4 °F 93% 30.11 in 3.0 mi NW 4.6 mph - N/A   Overcast
8:37 AM 30.2 °F 24.3 °F 28.4 °F 93% 30.11 in 5.0 mi NW 5.8 mph - N/A   Overcast
8:53 AM 30.9 °F 22.8 °F 28.9 °F 92% 30.19 in 10.0 mi NW 9.2 mph - N/A   Overcast
9:31 AM 30.2 °F 17.4 °F 24.8 °F 80% 30.16 in 10.0 mi NW 20.7 mph - N/A   Overcast
9:39 AM 30.2 °F 18.1 °F 24.8 °F 80% 30.16 in 10.0 mi NW 18.4 mph 24.2 mph N/A   Overcast
9:53 AM 30.0 °F 18.7 °F 24.1 °F 79% 30.23 in 10.0 mi NW 16.1 mph 24.2 mph N/A   Overcast
10:07 AM 30.2 °F 20.2 °F 24.8 °F 80% 30.19 in 10.0 mi NW 12.7 mph 20.7 mph N/A   Overcast
10:53 AM 30.0 °F 17.5 °F 21.0 °F 69% 30.28 in 10.0 mi NW 19.6 mph 29.9 mph N/A   Overcast
11:53 AM 26.1 °F 11.6 °F 18.0 °F 71% 30.35 in 9.0 mi NNW 21.9 mph 26.5 mph 0.00 in Snow Light Snow
12:53 PM 24.1 °F 9.8 °F 15.1 °F 69% 30.39 in 10.0 mi NW 19.6 mph 25.3 mph 0.00 in   Overcast
1:00 PM 24.8 °F 10.7 °F 15.8 °F 69% 30.31 in 10.0 mi NW 19.6 mph 25.3 mph N/A   Overcast
1:53 PM 23.0 °F 9.2 °F 10.9 °F 60% 30.43 in 10.0 mi NNW 17.3 mph - N/A   Scattered Clouds
2:53 PM 21.9 °F 6.5 °F 10.0 °F 60% 30.48 in 10.0 mi NW 20.7 mph 32.2 mph N/A   Overcast
3:53 PM 21.9 °F 8.7 °F 10.0 °F 60% 30.52 in 10.0 mi NW 15.0 mph 23.0 mph N/A   Overcast
4:53 PM 21.0 °F 7.6 °F 10.0 °F 63% 30.56 in 10.0 mi NNW 15.0 mph - N/A   Overcast
5:53 PM 19.0 °F 8.2 °F 10.9 °F 71% 30.58 in 10.0 mi NNW 9.2 mph - N/A   Mostly Cloudy
6:53 PM 19.0 °F 8.2 °F 10.9 °F 71% 30.61 in 10.0 mi NW 9.2 mph - N/A   Overcast
7:53 PM 17.1 °F 10.0 °F 10.9 °F 77% 30.64 in 10.0 mi NW 4.6 mph - N/A   Clear
8:53 PM 16.0 °F 10.4 °F 10.9 °F 81% 30.63 in 10.0 mi WNW 3.5 mph - N/A   Clear
9:53 PM 15.1 °F 6.4 °F 10.9 °F 84% 30.64 in 10.0 mi West 5.8 mph - N/A   Clear
10:53 PM 16.0 °F 10.4 °F 10.0 °F 77% 30.64 in 10.0 mi WNW 3.5 mph - N/A   Clear
11:53 PM 16.0 °F - 10.0 °F 77% 30.65 in 10.0 mi Calm Calm - N/A   Clear